Regional Weather Roundup
Issued by NWS Cleveland, OH

Home | Current Version | Previous Version | Text Only | Print | Product List | Glossary Off
Versions: 1 2 3 4 5 6 7 8 9 10 11 12 13 14 15 16 17 18 19 20 21 22 23 24 25 26 27 28 29 30 31 32 33 34 35 36 37 38 39 40 41 42 43 44 45 46 47 48 49 50

000
ASUS41 KCLE 210910
RWRCLE
OHIO REGIONAL WEATHER ROUNDUP
NATIONAL WEATHER SERVICE WILMINGTON, OH
500 AM EDT MON APR 21 2014

NOTE: "FAIR" INDICATES FEW OR NO CLOUDS BELOW 12,000 FEET WITH NO
SIGNIFICANT WEATHER AND/OR OBSTRUCTIONS TO VISIBILITY.

OHZ001>008-015>018-024>027-034-035-043-044-211000-
   NORTHWEST OHIO

CITY           SKY/WX    TMP DP  RH WIND       PRES   REMARKS
DEFIANCE       PTCLDY    47  37  68 CALM      30.05F
FINDLAY        CLEAR     48  38  68 SE3       30.05S
TOLEDO EXPRESS CLEAR     44  38  79 CALM      30.05S
TOLEDO METCALF CLEAR     47  37  68 CALM      30.06S
LIMA           CLEAR     50  37  61 S8        30.06S
$$

OHZ009>014-019>023-028>033-038-089-211000-
   NORTHEAST OHIO

CITY           SKY/WX    TMP DP  RH WIND       PRES   REMARKS
CLE-HOPKINS    PTCLDY    52  29  41 S9        30.09F
CLE-LAKEFRONT  CLEAR     56  28  34 SE14      30.04F
CUY CO. ARPT   NOT AVBL
LORAIN-ELYRIA  CLEAR     51  35  54 S7        30.06F
ASHTABULA      PTCLDY    49  29  46 S7        30.09F
AKRON-CANTON   CLEAR     50  29  44 CALM      30.09F
WOOSTER        CLEAR     42  35  76 CALM      30.09S
MANSFIELD      CLEAR     50  38  63 S3        30.08S
YOUNGSTOWN     PTCLDY    49  29  46 SE8       30.09F
$$

OHZ042-051>053-060>062-070>072-077>081-211000-
  SOUTHWEST OHIO

CITY           SKY/WX    TMP DP  RH WIND       PRES   REMARKS
CINC-COVINGTON MOCLDY    50  41  71 CALM      30.08S
CINC-LUNKEN    CLEAR     45  43  93 CALM      30.10R
HAMILTON       PTCLDY    46  43  89 CALM      30.09S
DAYTON         PTCLDY    51  38  60 CALM      30.08S
WRIGHT-PAT AFB PTCLDY    47  43  84 CALM      30.08S
DAYTON GENERAL PTCLDY    54  39  57 S3        30.07S
WILMINGTON     CLEAR     49  42  77 CALM      30.08S
$$

OHZ036-037-039>041-045>050-054>059-063>069-073>076-082>088-211000-
  CENTRAL AND SOUTHEAST OHIO

CITY           SKY/WX    TMP DP  RH WIND       PRES   REMARKS
COLUMBUS       CLEAR     49  38  65 CALM      30.07F
OSU AIRPORT    CLEAR     48  40  73 CALM      30.07F
BOLTON FIELD   CLEAR     45  42  89 CALM      30.07F
RICKENBACK AFB CLEAR     48  41  75 CALM      30.07S
NEWARK         CLEAR     40  36  86 CALM      30.07F
MARION         CLEAR     45  40  82 CALM      30.07S
LANCASTER      CLEAR     41  37  86 SE3       30.08F
ZANESVILLE     CLEAR     42  33  70 CALM      30.08F
NEW PHILLY     CLEAR     41  36  82 CALM      30.10S
$$



USA.gov is the U.S. government's official web portal to all federal, state and local government web resources and services.